Theta_e
315 310 310 306 296 292 288 290 293 295 294 301 299 296 295 296 296 292 310 323 330 334 343 348 351 354 355 355 354 354 353 351 350 350 350 350 351 350 349 347 344 342 342 341 340 338 336 335 335
312 313 306 298 290 286 288 291 293 295 297 298 298 297 297 295 302 307 314 321 334 338 344 346 348 353 355 355 354 353 353 353 351 350 349 348 348 348 346 345 342 340 339 339 338 334 333 332 332
311 308 300 293 287 286 288 291 293 296 297 297 301 304 301 298 304 307 314 321 334 337 343 345 347 352 353 354 353 352 352 352 351 349 348 348 347 346 347 344 342 339 336 336 334 331 330 327 328
307 303 297 290 289 290 292 292 294 295 297 297 300 299 298 304 304 310 318 329 332 335 340 343 348 352 352 352 352 352 351 351 352 351 350 347 345 343 342 341 340 338 335 334 331 329 326 323 322
301 296 290 288 289 290 291 294 295 295 295 296 299 295 296 302 312 316 320 331 330 333 337 340 346 350 351 351 351 351 351 351 351 350 348 345 344 341 340 338 338 335 335 332 329 325 322 320 319
298 293 288 286 289 292 294 296 295 294 293 295 299 298 298 303 310 314 319 320 329 332 335 339 340 344 347 349 350 350 350 350 351 349 347 346 343 340 337 335 336 335 333 330 327 323 320 318 317
295 291 287 287 288 291 293 296 298 295 292 296 302 298 299 301 306 311 317 318 322 331 333 336 339 340 339 342 343 346 347 348 347 346 345 344 341 339 337 335 334 335 333 329 326 322 319 316 315
296 292 288 287 287 289 294 296 295 294 294 299 298 295 297 304 304 311 313 313 314 324 331 333 336 340 340 340 336 338 341 342 342 341 339 336 335 335 334 331 333 333 332 329 326 322 319 316 312
296 288 285 288 289 291 295 295 296 295 294 295 297 298 297 302 306 307 307 310 312 318 327 330 334 338 341 339 336 332 335 336 336 336 332 329 331 332 327 326 330 334 331 327 325 322 319 315 310
293 286 288 292 293 293 294 293 294 295 294 293 294 298 300 303 305 305 305 307 309 313 317 326 330 337 339 339 340 338 334 334 333 334 332 330 329 328 326 322 326 330 328 329 325 322 318 306 294
294 289 292 295 296 295 294 294 295 292 293 295 295 297 298 299 301 302 302 302 304 306 314 319 326 331 335 336 338 338 338 335 331 331 330 327 326 324 323 321 319 319 319 317 319 313 306 299 296
293 297 296 298 298 296 294 296 294 295 297 298 297 296 295 294 294 294 294 295 296 300 307 314 321 325 328 334 336 336 335 334 330 327 325 323 324 322 320 319 318 315 313 311 309 306 304 300 296
292 294 295 298 297 295 295 295 294 295 298 297 296 296 295 295 294 295 296 296 296 296 297 300 315 322 325 325 328 332 333 333 332 328 325 324 322 322 320 318 317 315 312 308 306 303 302 297 294
293 294 294 295 295 295 294 292 292 296 295 295 295 294 293 293 293 293 294 294 294 296 297 299 304 319 323 325 323 328 331 330 329 326 324 325 323 321 319 317 315 314 311 307 305 303 301 296 293
294 291 293 293 293 293 294 291 292 296 295 293 292 292 292 292 292 291 292 293 293 294 296 298 308 316 320 321 320 322 323 323 323 322 321 324 323 322 318 316 314 313 310 306 303 301 297 294 292
289 288 286 291 292 292 292 288 295 295 294 291 291 289 290 291 291 291 292 292 292 293 294 297 300 311 316 318 318 319 319 320 321 323 323 323 323 322 318 315 313 313 310 308 305 299 296 294 291
286 282 284 289 293 291 289 287 294 295 293 291 288 288 289 289 289 290 290 290 291 292 293 295 297 299 310 314 316 315 316 319 320 322 322 322 320 319 317 314 313 311 309 306 303 297 295 293 291
283 283 284 285 289 290 288 289 293 292 291 288 286 287 287 287 288 289 289 290 290 291 292 293 295 295 299 307 310 311 311 311 312 313 316 319 319 318 315 312 310 308 306 303 300 298 292 291 291
286 284 284 286 291 288 288 289 289 290 288 287 286 286 286 286 288 289 289 288 289 290 291 291 292 293 296 296 298 301 298 299 300 303 304 307 310 313 313 312 310 307 305 304 300 296 295 293 289
286 284 284 288 290 289 287 288 287 288 287 287 286 285 286 286 286 287 287 287 287 287 289 290 291 291 293 294 294 296 294 294 297 297 297 298 300 302 304 306 304 304 302 300 298 295 294 293 291
286 285 285 287 287 286 284 284 285 286 287 287 286 286 286 285 285 285 285 285 285 285 286 288 289 290 291 292 293 293 293 292 292 292 293 293 293 293 295 298 300 300 299 298 297 295 294 293 291
285 290 288 287 283 280 284 278 283 285 284 284 284 283 284 284 285 285 284 284 284 284 285 287 288 288 289 290 290 289 287 286 287 288 289 289 289 289 290 291 292 293 296 296 295 295 294 292 291
288 288 287 285 282 280 280 279 281 284 282 282 283 284 284 284 284 284 283 284 283 283 283 284 286 286 287 287 287 286 284 285 284 285 285 286 286 286 287 287 288 289 290 289 290 292 293 292 291
290 287 285 282 281 276 281 281 280 282 283 283 283 283 284 284 283 284 284 284 282 282 282 283 284 284 285 285 285 284 283 282 282 282 282 283 284 284 285 286 286 286 287 287 287 288 288 289 290
287 285 279 276 275 276 280 279 282 284 284 285 283 283 283 283 283 283 282 282 282 281 281 283 282 282 283 284 284 283 282 281 281 281 281 281 282 282 283 284 284 284 285 286 286 287 286 286 286
285 285 278 270 273 276 282 279 284 283 284 285 285 283 283 282 283 283 283 282 281 281 281 281 282 281 281 281 282 283 283 283 282 282 282 282 282 283 283 283 284 284 284 284 284 285 285 285 286
284 282 285 279 270 275 279 282 283 283 282 282 282 282 282 282 282 282 282 282 281 280 280 280 281 281 281 281 281 281 282 283 283 283 283 283 283 283 283 283 282 282 283 283 283 282 282 283 284
286 288 281 279 268 268 276 278 280 280 281 281 281 282 282 283 283 282 281 281 281 280 280 280 280 280 281 281 281 280 280 280 280 280 280 280 280 281 281 280 281 281 281 281 281 280 281 282 282
283 282 282 283 277 270 268 275 283 284 283 282 282 283 283 283 282 282 281 281 281 281 281 281 280 280 280 280 280 280 280 280 279 279 279 279 279 280 280 279 279 279 279 279 278 278 279 279 280
284 284 283 280 276 276 277 278 285 285 285 284 283 284 283 283 282 281 281 280 280 280 280 279 280 279 280 280 279 279 279 279 279 279 279 279 278 279 279 279 279 279 279 278 277 276 277 277 278
Wind_Speed
6 5 2 5 6 6 1 2 2 0 1 2 1 2 2 3 3 5 4 8 5 8 10 10 12 14 14 15 14 13 12 12 11 10 10 11 10 11 11 11 10 9 8 7 8 7 7 7 7
3 1 5 3 7 4 5 4 2 2 1 1 1 2 2 2 1 2 1 7 6 9 10 10 11 12 13 13 14 13 12 11 12 11 10 10 8 8 8 9 9 8 7 6 6 6 6 6 7
0 4 5 5 4 4 4 4 3 2 2 2 1 0 2 2 1 3 5 8 7 6 8 9 12 13 13 14 13 13 12 12 12 12 12 13 10 7 7 6 8 8 6 5 4 5 5 6 5
3 5 5 6 1 3 3 4 3 1 3 1 1 2 3 2 1 2 3 7 7 6 6 8 13 13 14 15 13 12 11 11 11 11 11 11 10 8 6 5 3 4 4 2 3 4 5 5 5
5 4 5 4 3 4 3 2 3 3 0 2 1 3 3 2 1 3 6 6 7 5 5 6 12 12 13 14 14 13 12 11 10 12 12 10 8 6 5 4 0 1 2 1 1 3 3 4 4
5 4 6 1 4 4 6 4 3 2 1 1 0 1 4 3 1 2 5 5 5 7 6 6 10 11 11 13 14 14 13 12 12 14 12 13 10 8 6 3 3 3 3 2 0 2 2 3 4
6 5 3 2 3 5 4 8 3 2 2 2 1 1 3 4 6 2 4 6 6 6 5 5 7 8 10 10 11 11 12 11 11 11 12 13 12 9 8 6 2 3 3 4 2 1 1 2 3
6 5 2 2 2 2 3 8 2 3 3 6 4 2 4 3 1 4 2 1 3 5 6 6 6 8 6 6 9 9 9 8 7 7 9 10 10 9 8 7 3 4 6 5 3 3 2 1 3
3 5 2 4 4 3 4 6 5 2 3 3 3 1 4 3 2 2 1 1 2 4 6 6 7 9 9 6 6 8 9 9 8 7 8 7 4 6 7 6 7 6 7 6 4 3 2 3 6
5 4 8 4 3 3 3 1 2 6 6 3 3 7 2 2 1 4 4 6 4 6 5 6 6 11 12 10 9 7 4 4 4 4 5 4 5 6 6 6 8 5 6 5 5 4 1 5 2
3 5 4 4 5 1 2 4 3 2 7 8 5 7 8 5 6 6 7 5 6 4 4 6 5 6 11 9 5 4 4 3 3 5 5 5 4 4 3 3 2 2 4 2 3 1 2 0 2
0 5 4 3 2 2 3 4 4 6 10 1 6 4 5 9 9 8 9 9 9 9 8 6 7 6 7 6 7 6 4 4 3 4 4 4 3 3 3 2 3 2 1 3 3 2 2 1 3
3 3 3 6 7 5 1 9 5 11 12 7 6 10 9 8 8 7 7 7 9 10 9 9 7 8 6 5 4 6 6 4 3 4 5 4 3 5 5 3 3 3 1 3 3 2 2 2 3
2 3 6 8 6 4 5 5 3 6 1 10 9 9 8 10 9 7 12 11 13 12 12 11 8 7 7 7 6 5 6 6 3 3 4 6 4 4 3 4 4 4 4 3 3 3 3 3 2
1 5 8 6 2 6 6 3 7 7 6 8 9 8 9 10 11 11 10 10 12 12 13 13 10 4 6 6 5 3 3 3 3 4 5 7 6 6 6 4 4 4 4 5 2 1 1 2 1
2 3 4 2 2 1 4 8 7 5 6 8 8 7 8 12 12 12 12 11 12 12 15 14 13 9 5 5 4 3 3 2 2 1 2 4 4 4 3 3 3 4 4 4 3 2 2 3 3
4 4 5 9 1 2 2 6 10 4 9 6 8 7 8 10 14 14 13 12 13 13 14 15 15 13 8 7 6 6 6 5 4 3 3 2 3 2 3 2 2 3 3 3 2 2 2 2 2
6 5 5 6 1 3 2 9 12 10 8 8 7 7 9 11 12 11 12 12 11 12 13 14 13 16 11 7 7 6 8 8 9 9 8 6 4 3 1 2 3 4 3 2 2 3 1 1 2
4 4 5 4 4 3 7 8 4 5 9 8 7 8 8 9 7 10 11 11 11 14 15 16 16 15 11 6 4 6 6 8 10 9 14 13 11 10 6 4 3 1 2 0 1 1 2 2 1
3 3 6 7 4 5 7 10 6 7 5 5 7 7 6 5 7 8 11 12 13 12 13 15 15 15 12 9 4 4 3 5 8 9 13 14 14 14 10 8 6 7 5 4 1 1 0 1 3
4 5 5 7 3 1 4 8 4 4 7 8 7 6 6 6 6 9 11 10 10 12 12 13 13 14 13 12 7 5 5 4 8 10 9 13 14 14 13 13 10 8 4 4 4 2 2 3 1
3 7 3 3 2 3 2 6 4 5 5 5 4 5 6 5 5 6 7 9 8 9 10 12 14 14 13 12 12 15 9 7 4 4 6 9 13 14 12 11 10 9 7 8 5 4 2 1 4
7 4 4 2 3 3 3 1 7 6 4 5 5 5 4 4 5 5 5 5 6 7 7 7 11 13 13 14 13 10 11 6 5 6 9 10 10 12 13 13 11 10 7 7 7 7 6 2 3
5 4 5 4 3 0 8 7 5 5 5 6 6 6 6 5 5 5 4 5 6 6 6 7 10 10 10 11 12 13 11 9 8 9 8 7 6 7 11 11 10 10 9 8 6 5 6 5 4
5 6 3 4 3 6 3 4 8 4 5 9 13 9 8 6 5 5 6 5 6 6 6 7 8 10 7 9 10 9 8 8 8 5 4 5 5 4 8 8 8 7 8 9 10 9 7 5 3
6 8 7 7 4 4 5 7 5 2 4 9 9 8 6 7 6 6 6 6 6 6 7 7 7 7 7 7 7 6 6 5 5 5 4 4 4 4 5 6 6 6 6 7 7 5 6 8 6
5 4 4 6 3 1 5 4 1 4 4 5 8 7 8 8 7 7 6 6 6 6 6 7 7 6 7 7 6 6 6 6 6 6 5 4 4 5 6 6 7 7 6 5 5 4 6 6 5
4 7 4 3 2 5 5 7 6 8 10 7 8 10 8 8 7 6 6 6 5 5 5 5 5 7 6 6 6 5 6 6 6 5 6 6 5 6 7 7 8 8 7 7 7 6 6 6 5
2 2 4 4 5 6 3 7 5 11 14 16 13 10 10 8 8 7 7 6 6 6 5 5 5 5 5 4 4 5 5 5 4 4 4 5 5 5 6 6 6 6 6 6 6 6 8 9 10
2 7 7 6 7 3 3 11 4 6 11 11 10 10 7 7 8 7 8 7 6 6 5 5 5 5 4 4 3 4 5 6 7 6 6 6 7 7 7 8 9 10 10 7 6 6 6 7 11
Wind_Direction
329 345 80 42 56 65 321 277 313 257 316 216 100 123 173 180 159 208 295 194 151 147 166 175 176 172 169 169 162 157 155 152 145 136 129 122 123 124 121 118 114 105 100 89 86 81 71 67 62
330 3 42 79 80 63 281 267 256 246 316 86 85 92 46 276 238 281 102 199 176 154 162 171 172 177 170 159 157 158 160 159 157 154 144 136 140 138 137 135 129 113 94 81 76 71 64 55 59
173 43 76 86 102 156 197 233 234 304 354 20 16 151 169 248 264 215 235 170 143 155 162 171 172 176 168 158 163 164 166 167 167 167 167 160 137 121 136 127 141 117 95 70 63 60 53 35 42
49 12 37 78 96 243 223 242 219 5 331 34 41 344 314 353 299 260 96 143 145 157 162 171 176 180 172 163 168 172 173 176 177 179 169 134 138 138 128 123 124 92 88 63 46 46 36 23 18
34 54 53 77 287 268 261 246 177 147 74 294 38 316 279 343 327 104 123 145 158 162 163 169 180 184 177 170 172 176 180 187 193 172 159 146 148 150 132 107 18 62 64 305 33 36 30 23 18
40 86 55 173 281 286 307 344 312 76 226 274 287 335 264 317 299 196 134 166 180 171 172 172 184 183 181 179 178 182 187 194 203 184 163 154 161 171 167 123 315 164 133 247 42 15 23 22 22
101 75 173 199 277 328 331 330 345 24 338 283 183 337 290 317 227 179 177 163 183 181 172 179 186 193 186 185 187 186 189 199 202 195 175 161 159 167 163 140 224 173 167 227 179 176 346 14 25
101 90 101 258 259 243 309 339 347 40 305 315 181 272 305 327 53 144 162 155 167 192 191 189 189 190 190 195 190 189 192 199 195 180 155 156 157 163 162 154 185 193 227 236 201 203 204 113 36
113 63 196 234 178 263 324 11 319 261 242 355 295 266 308 325 91 113 70 289 232 225 214 196 191 194 194 186 194 196 195 195 190 178 167 157 159 165 166 166 186 198 218 228 213 239 270 28 4
87 118 219 217 184 236 297 258 356 340 331 292 307 316 346 339 294 249 246 250 253 240 240 209 195 200 202 205 198 198 195 196 190 185 181 163 166 161 163 178 182 186 183 211 200 228 107 49 4
159 194 208 254 234 215 264 287 169 221 296 231 264 311 325 316 322 312 297 301 287 261 261 247 223 197 201 205 195 195 195 191 190 197 175 168 157 150 145 148 179 169 190 175 164 114 92 44 347
245 247 224 265 184 348 270 301 299 209 241 199 28 314 359 23 30 20 2 359 341 312 294 252 212 205 205 197 200 201 195 186 180 168 173 150 151 152 149 161 178 175 183 174 161 155 169 259 313
207 277 292 270 288 250 281 249 232 263 267 31 82 54 42 38 19 6 350 347 346 349 326 312 241 202 185 183 183 203 212 205 184 164 169 162 166 175 159 173 172 174 169 186 185 181 198 252 295
198 268 272 276 263 263 233 268 152 280 349 66 76 58 46 39 13 10 11 359 359 342 338 322 281 209 169 181 171 181 197 208 194 195 187 176 172 170 181 160 182 183 178 196 190 188 204 242 270
245 317 323 268 265 209 163 294 233 245 21 57 71 51 42 32 23 17 357 356 353 345 338 349 333 213 175 169 153 148 151 147 167 181 179 192 180 188 174 169 169 205 175 168 158 171 163 244 266
14 43 326 267 165 51 142 260 273 330 11 83 78 54 42 29 21 13 4 2 359 1 3 359 5 9 80 103 103 106 109 125 203 221 147 166 190 183 165 183 191 191 162 148 170 178 229 247 235
3 231 217 315 199 122 140 273 273 353 12 43 65 50 42 30 22 13 8 6 5 6 9 13 15 15 21 67 72 69 61 38 19 23 333 284 247 215 173 211 250 157 148 156 161 177 186 224 254
205 220 245 240 159 32 282 249 272 342 32 88 79 60 51 40 23 10 13 15 16 20 25 25 25 21 11 33 59 55 52 48 38 29 18 20 360 324 97 127 139 138 134 156 179 196 160 187 255
150 185 231 265 267 344 255 256 336 20 64 76 68 66 59 44 12 22 21 22 28 31 33 28 28 19 32 21 19 36 41 30 40 36 30 26 28 29 11 357 8 87 148 310 115 98 212 280 62
251 236 261 281 271 170 290 280 72 36 52 77 88 74 67 54 31 26 26 27 28 28 33 37 39 33 31 28 18 50 53 52 47 28 35 30 30 27 34 43 32 17 2 12 44 104 356 277 192
215 191 217 227 335 288 332 291 163 58 80 77 69 73 50 45 42 25 22 17 25 31 27 36 36 45 42 42 38 31 40 35 32 27 29 23 27 33 33 30 26 32 40 15 353 333 280 314 329
240 214 211 189 93 226 36 278 309 138 100 64 72 75 89 70 48 35 24 35 26 22 26 39 41 41 38 36 60 68 67 63 13 21 25 31 29 26 28 29 28 33 26 21 3 355 322 309 287
227 148 148 119 116 69 289 311 263 116 174 178 164 136 123 101 93 76 58 54 35 29 38 50 66 60 54 55 54 56 60 51 40 36 42 39 32 33 23 20 22 25 22 17 19 8 2 340 310
137 110 69 63 102 287 233 177 266 193 202 168 176 167 163 144 126 112 88 65 59 42 40 44 50 50 49 72 78 78 74 65 57 43 36 24 31 31 27 25 22 18 17 10 353 9 28 2 333
87 69 325 341 357 227 132 131 244 296 296 185 167 170 176 167 159 134 106 88 71 61 61 72 65 56 38 48 55 63 78 73 63 50 49 41 22 24 17 18 19 20 15 13 2 354 2 13 357
176 158 161 217 199 282 319 232 257 320 340 126 139 159 168 178 175 156 143 123 108 93 81 81 80 82 69 67 59 52 57 68 60 49 31 32 11 20 12 10 15 10 5 9 11 7 347 345 345
185 177 165 106 48 50 248 294 224 92 86 122 155 175 193 198 184 176 160 143 126 110 106 108 96 92 73 78 75 61 54 53 50 40 37 21 8 4 6 6 2 358 360 356 355 356 338 333 320
156 164 88 18 158 250 278 273 227 198 195 190 196 204 201 208 187 177 165 158 151 140 128 111 103 100 95 82 71 70 58 47 44 34 22 2 353 355 353 350 355 350 338 341 347 344 332 321 321
133 180 73 123 144 176 257 256 235 191 183 191 203 208 207 201 192 178 179 174 166 160 156 142 125 117 107 102 92 80 64 50 42 31 5 353 345 348 345 336 328 323 319 319 325 323 317 324 316
213 186 158 179 235 246 161 259 353 175 186 180 197 212 214 201 197 183 176 172 175 175 173 169 164 150 146 138 98 59 42 28 19 2 354 355 349 347 344 338 336 334 328 324 308 299 298 290 299